[[{"header":{"parameterUnit":"m.s-1","parameterCategory":1,"la1":30.2991,"la2":30.254,"lo1":-89.0895,"lo2":-89.0444,"dy":0.0017,"dx":0.0017,"nx":28,"ny":28,"refTime":"2024-08-05T09:00:00:Z","depth":0,"parameterNumber":2,"parameterNumberName":"U-component_of_WINDS"},"data":[0,0,0,0,0,0,0,0,0,0,0,0,0,0,0,0,0,0,0,0,0,0,0,0,0,0,0,0,0,0,0,0,0,0,0,0,0,0,0,0,0,0,0,0,0,0,0,0,0,0,0,0,0,0,0,0,0,0,1.091,1.091,0,1.0961,1.0962,1.0962,1.1,1.1,1.1,1.1001,1.1056,1.1058,1.1059,0,0,0,0,0,0,0,0,0,0,0,0,0,1.0847,1.0848,1.091,1.091,1.0911,1.0961,1.0962,1.0962,1.1,1.1,1.1,1.1001,1.1056,1.1057,1.1059,0,0,0,0,0,0,0,0,0,0,0,0,0,1.0884,1.0848,1.0909,1.0935,1.0938,1.0961,1.0962,1.0962,1.1,1.1,1.1,1.1001,1.1056,1.1057,1.1059,1.1061,0,0,1.1065,1.1065,0,0,0,0,0,0,0,0,1.0882,1.0886,1.0931,1.0934,1.0937,1.0974,1.096,1.0996,1.0999,1.0976,1.1001,1.1001,1.1029,1.1033,1.1042,1.1063,1.1066,1.1065,1.1066,1.1067,1.1067,0,0,0,0,0,0,0,1.0879,1.0884,1.093,1.0932,1.0935,1.0946,1.0951,1.0967,1.1,1.0978,1.0981,1.0987,1.1031,1.104,1.1043,1.1067,1.1065,1.1066,1.1067,1.1068,1.1093,1.1093,0,0,0,0,0,0,1.0872,1.0882,1.0928,1.0932,1.091,1.0946,1.0953,1.0962,1.0999,1.1006,1.0986,1.0988,1.1037,1.1041,1.1045,1.105,1.1067,1.1068,1.1069,1.1094,1.1093,1.1093,0,0,0,0,0,0,1.087,1.0876,1.0926,1.0907,1.0915,1.0947,1.0957,1.0963,1.0972,1.1005,1.1012,1.0989,1.1037,1.1043,1.1057,1.1053,1.1069,1.1071,1.1094,1.1094,1.1093,1.106,0,0,0,0,0,0,1.0868,1.0875,1.0875,1.0907,1.0915,1.0936,1.0957,1.0963,1.0974,1.0978,1.101,1.1016,1.1038,1.1054,1.1058,1.1056,1.1072,1.1095,1.1094,1.1093,1.1062,1.1058,1.1056,0,0,0,0,0,1.0866,1.0864,1.0875,1.088,1.0916,1.0935,1.094,1.0965,1.0974,1.0975,1.0997,1.1015,1.1052,1.1055,1.106,1.1058,1.1095,1.1094,1.1093,1.1063,1.1059,1.1056,0,0,0,0,0,0,1.0833,1.0869,1.0881,1.089,1.0909,1.0942,1.0944,1.096,1.0978,1.098,1.1011,1.1018,1.1028,1.1045,1.1047,1.1062,1.1076,1.1076,1.1051,1.1048,1.1045,1.1041,1.1074,0,0,0,0,0,1.0826,1.0837,1.0869,1.0874,1.0882,1.0911,1.092,1.0938,1.0959,1.0968,1.0991,1.1012,1.1029,1.1039,1.1056,1.1064,1.1072,1.1065,1.1062,1.106,1.106,1.1066,1.1063,1.109,1.109,1.109,0,0,1.0813,1.0834,1.084,1.0867,1.0884,1.0896,1.0918,1.093,1.0939,1.097,1.0984,1.1002,1.1028,1.1038,1.1044,1.1052,1.1054,1.1058,1.1056,1.1058,1.1064,1.1062,1.1059,1.1089,1.1089,1.1089,0,0,1.0795,1.0812,1.0818,1.0834,1.0859,1.0878,1.0879,1.091,1.0922,1.0936,1.096,1.0972,1.1,1.1018,1.103,1.1019,1.1037,1.1024,1.1008,1.1014,1.1012,1.101,1.1006,1.1005,1.1023,1.1023,1.1023,0,1.0776,1.0794,1.0819,1.0829,1.0841,1.0868,1.0875,1.089,1.092,1.0928,1.0936,1.0971,1.0991,1.1006,1.1003,1.1012,1.1016,1.102,1.101,1.1008,1.1007,1.1004,1.1003,1.1022,1.1022,1.1022,1.1022,0,1.0769,1.0782,1.0783,1.081,1.0822,1.0831,1.0858,1.0867,1.0883,1.0902,1.0917,1.0941,1.0963,1.0968,1.0984,1.0986,1.099,1.1004,1.1018,1.1002,1.1,1.0999,1.1019,1.102,1.102,1.1021,0,0,1.0732,1.0772,1.0773,1.0785,1.0815,1.0826,1.0836,1.0857,1.0864,1.0884,1.0894,1.0917,1.0929,1.0943,1.0962,1.0966,1.0956,1.0979,1.098,1.0975,1.0961,1.0951,1.0949,1.0968,1.0968,1.0968,1.0959,0,1.072,1.0738,1.0761,1.0772,1.0784,1.081,1.0819,1.0838,1.0856,1.087,1.089,1.0905,1.092,1.0929,1.0935,1.0956,1.0954,1.0957,1.0979,1.0979,1.0972,1.0948,1.0938,1.0928,1.0958,1.0958,1.0958,0,1.0708,1.0725,1.0737,1.0765,1.0771,1.0778,1.08,1.0812,1.0835,1.0848,1.0863,1.0883,1.0896,1.0908,1.0927,1.0929,1.0939,1.0951,1.0951,1.0954,1.0968,1.0951,1.0925,1.0924,1.0957,1.0957,1.0957,0,1.068,1.0706,1.0717,1.0727,1.076,1.0765,1.0779,1.0803,1.0814,1.0833,1.0841,1.0861,1.0873,1.0888,1.0913,1.092,1.093,1.0944,1.0941,1.0941,1.0943,1.0942,1.0918,1.0948,1.0948,1.0948,1.0948,0,1.0664,1.067,1.0705,1.0711,1.072,1.0746,1.0754,1.0771,1.0791,1.0802,1.0826,1.0836,1.0868,1.0883,1.0902,1.0915,1.092,1.0931,1.0937,1.0929,1.0928,1.0937,1.0938,1.0948,1.0948,1.0948,1.0948,0,1.0635,1.0658,1.0671,1.0702,1.0709,1.0714,1.0741,1.0749,1.0767,1.0781,1.0786,1.0816,1.0833,1.086,1.0886,1.0899,1.0909,1.0917,1.0901,1.0904,1.09,1.09,1.0882,1.0881,1.091,1.091,1.0909,0,1.0623,1.0629,1.0659,1.0668,1.0681,1.0695,1.0706,1.0732,1.0743,1.077,1.0775,1.0794,1.0811,1.0839,1.0863,1.0884,1.0893,1.0885,1.0896,1.0889,1.0893,1.0893,1.0894,1.0882,1.0882,1.0882,1.0881,0,1.06,1.0612,1.0626,1.0645,1.0658,1.0674,1.0692,1.0698,1.0728,1.074,1.0758,1.0771,1.0797,1.0816,1.084,1.0856,1.0874,1.0877,1.0878,1.0871,1.0861,1.0867,1.0894,1.0878,1.0878,1.0878,1.0879,1.0879,1.058,1.0587,1.0609,1.0625,1.064,1.0656,1.0665,1.0684,1.07,1.0722,1.0737,1.0754,1.0778,1.0811,1.0826,1.0841,1.0848,1.0849,1.0849,1.0849,1.0847,1.0858,1.0845,1.0845,1.0845,1.0845,1.0846,0,1.0559,1.0575,1.0589,1.0612,1.0625,1.0639,1.066,1.067,1.0684,1.0704,1.072,1.0741,1.076,1.0785,1.0806,1.0813,1.0822,1.0818,1.0818,1.0821,1.0838,1.0836,1.081,1.081,1.081,1.081,1.081,1.081,1.055,1.0561,1.0575,1.0594,1.061,1.0626,1.0637,1.0652,1.0668,1.0689,1.0705,1.0721,1.0743,1.0766,1.0784,1.0792,1.0798,1.0792,1.0801,1.0817,1.082,1.0823,1.0821,1.0793,1.0793,1.0783,1.0783,1.0783]},{"header":{"parameterUnit":"m.s-1","parameterCategory":1,"la1":30.2991,"la2":30.254,"lo1":-89.0895,"lo2":-89.0444,"dy":0.0017,"dx":0.0017,"nx":28,"ny":28,"refTime":"2024-08-05T09:00:00:Z","depth":0,"parameterNumber":3,"parameterNumberName":"V-component_of_WINDS"},"data":[0,0,0,0,0,0,0,0,0,0,0,0,0,0,0,0,0,0,0,0,0,0,0,0,0,0,0,0,0,0,0,0,0,0,0,0,0,0,0,0,0,0,0,0,0,0,0,0,0,0,0,0,0,0,0,0,0,0,0.5723,0.5725,0,0.5886,0.5888,0.589,0.5857,0.5854,0.5851,0.5848,0.6016,0.6023,0.603,0,0,0,0,0,0,0,0,0,0,0,0,0,0.5381,0.5387,0.5723,0.5725,0.5727,0.5886,0.5888,0.589,0.5858,0.5854,0.585,0.5847,0.6013,0.6022,0.6031,0,0,0,0,0,0,0,0,0,0,0,0,0,0.5535,0.5389,0.5723,0.573,0.5732,0.5885,0.5888,0.5891,0.5858,0.5854,0.5849,0.5845,0.6011,0.6021,0.6032,0.6188,0,0,0.6065,0.607,0,0,0,0,0,0,0,0,0.5526,0.5548,0.5727,0.573,0.5732,0.5847,0.5829,0.5991,0.5859,0.5811,0.5848,0.5843,0.5963,0.5978,0.6018,0.6196,0.6203,0.6066,0.6073,0.6077,0.608,0,0,0,0,0,0,0,0.5516,0.5541,0.5788,0.5729,0.5733,0.5724,0.5741,0.5859,0.591,0.5814,0.5812,0.5832,0.5964,0.6008,0.6022,0.6206,0.6066,0.6075,0.6082,0.6086,0.6514,0.6519,0,0,0,0,0,0,0.5503,0.5532,0.5782,0.5792,0.5616,0.5734,0.5753,0.5815,0.5909,0.5919,0.5836,0.583,0.5991,0.6009,0.6028,0.6213,0.6077,0.6087,0.6094,0.651,0.6516,0.6521,0,0,0,0,0,0,0.5496,0.5525,0.5776,0.5662,0.5693,0.5745,0.5814,0.582,0.5864,0.5925,0.5933,0.5871,0.5989,0.6012,0.6147,0.6218,0.6092,0.6102,0.6504,0.6511,0.6518,0.6587,0,0,0,0,0,0,0.5486,0.5523,0.5584,0.5663,0.5699,0.5894,0.5819,0.5827,0.5883,0.5877,0.596,0.597,0.5987,0.6131,0.6158,0.6231,0.6111,0.6498,0.6507,0.6516,0.6579,0.6596,0.661,0,0,0,0,0,0.5474,0.5598,0.5587,0.5618,0.5776,0.5898,0.5919,0.5935,0.5889,0.5949,0.5987,0.5967,0.6207,0.6145,0.6175,0.6252,0.6493,0.6505,0.6515,0.6571,0.6592,0.661,0,0,0,0,0,0,0.5527,0.5609,0.5598,0.5752,0.5818,0.5892,0.597,0.5958,0.6039,0.603,0.6047,0.6067,0.6203,0.6242,0.6172,0.6406,0.6343,0.636,0.6376,0.6396,0.6412,0.6398,0.612,0,0,0,0,0,0.5557,0.5649,0.5716,0.5845,0.5879,0.5919,0.5972,0.5979,0.6049,0.6077,0.6125,0.6193,0.6283,0.6342,0.6429,0.6584,0.66,0.6652,0.6668,0.668,0.6695,0.6775,0.6797,0.6557,0.6557,0.6556,0,0,0.562,0.5675,0.5733,0.5857,0.5909,0.6003,0.5943,0.6046,0.6115,0.6093,0.6221,0.6259,0.6336,0.6481,0.6547,0.6517,0.6764,0.6694,0.6704,0.6712,0.6788,0.6811,0.6831,0.6564,0.6563,0.6562,0,0,0.578,0.5834,0.5945,0.5997,0.6076,0.6101,0.6128,0.6203,0.6227,0.6357,0.634,0.6422,0.6579,0.6632,0.668,0.6856,0.6839,0.6884,0.6966,0.7044,0.7063,0.708,0.7139,0.716,0.6898,0.6899,0.6899,0,0.5848,0.5989,0.6004,0.6107,0.616,0.6143,0.6254,0.6304,0.6408,0.6444,0.641,0.6601,0.6652,0.6806,0.6849,0.689,0.6918,0.6874,0.7059,0.7076,0.7092,0.7148,0.7171,0.6903,0.6903,0.6902,0.6902,0,0.6066,0.6163,0.6244,0.6341,0.6404,0.6511,0.654,0.6602,0.6602,0.663,0.676,0.682,0.6916,0.6953,0.6956,0.7107,0.7085,0.7055,0.6992,0.7119,0.7172,0.7194,0.691,0.6908,0.6907,0.6906,0,0,0.6266,0.6368,0.6397,0.6439,0.6523,0.6598,0.6703,0.6795,0.6846,0.6917,0.7003,0.7133,0.7104,0.7158,0.7166,0.7235,0.7365,0.7195,0.7197,0.7221,0.7529,0.7549,0.7574,0.7354,0.7359,0.7362,0.7521,0,0.6432,0.6615,0.663,0.6795,0.6882,0.6866,0.6956,0.7016,0.7044,0.7122,0.7153,0.7243,0.72,0.7232,0.7299,0.7335,0.7426,0.7324,0.7432,0.7435,0.741,0.7603,0.7625,0.7773,0.7543,0.7546,0.7549,0,0.665,0.6725,0.6898,0.6965,0.7002,0.7083,0.7166,0.7242,0.7309,0.7324,0.7382,0.738,0.7484,0.7418,0.756,0.749,0.7535,0.7559,0.7565,0.7573,0.7498,0.7613,0.7821,0.7842,0.7582,0.758,0.7577,0,0.6773,0.6918,0.7039,0.7076,0.7159,0.7215,0.7252,0.7314,0.7367,0.744,0.7474,0.7559,0.7605,0.7669,0.7688,0.7639,0.7828,0.7765,0.7841,0.7841,0.7881,0.7877,0.8095,0.7915,0.7915,0.7914,0.7914,0,0.6955,0.7061,0.7095,0.7169,0.7285,0.73,0.7415,0.7448,0.7503,0.7581,0.7573,0.7647,0.7669,0.7746,0.7762,0.7875,0.7897,0.791,0.7912,0.7909,0.7907,0.7937,0.7926,0.792,0.7919,0.7918,0.7917,0,0.7113,0.714,0.727,0.7336,0.7355,0.7437,0.7493,0.7563,0.7589,0.7688,0.7712,0.7752,0.7842,0.7867,0.7977,0.7987,0.8118,0.8113,0.8095,0.8094,0.8167,0.8158,0.841,0.8441,0.8243,0.8245,0.8247,0,0.7226,0.7306,0.7379,0.743,0.7469,0.7553,0.7606,0.7623,0.7678,0.7757,0.7817,0.7905,0.7977,0.812,0.8158,0.824,0.8234,0.8317,0.8247,0.8239,0.8231,0.8224,0.823,0.8329,0.8331,0.8333,0.8335,0,0.7421,0.743,0.7507,0.7587,0.765,0.7715,0.7777,0.782,0.7844,0.7907,0.7998,0.8053,0.8161,0.8248,0.833,0.8366,0.8353,0.8356,0.8377,0.8373,0.8358,0.8363,0.8127,0.835,0.8349,0.8347,0.8347,0.8346,0.7558,0.7626,0.7687,0.7771,0.7819,0.7876,0.7943,0.7976,0.8052,0.8141,0.8146,0.8243,0.8304,0.8412,0.8452,0.8527,0.8503,0.8535,0.8542,0.8549,0.8553,0.8348,0.8543,0.8543,0.8542,0.8542,0.8542,0,0.7749,0.7786,0.7864,0.7949,0.8015,0.7997,0.8063,0.8119,0.8204,0.8262,0.8331,0.8433,0.8515,0.8559,0.864,0.8691,0.8687,0.8712,0.8707,0.8714,0.8573,0.8544,0.8713,0.8713,0.8713,0.8713,0.8713,0.8713,0.7856,0.7969,0.7985,0.812,0.8157,0.8251,0.829,0.8341,0.8386,0.85,0.8568,0.8595,0.8645,0.873,0.8804,0.8814,0.8842,0.887,0.8876,0.8743,0.8725,0.8708,0.8681,0.8877,0.8877,0.9011,0.9013,0.9014]}]]